This is the latest recevied weather packets stored in our database for station/object YO6LRV-3. If no packets are shown the sender has not sent any weather packets the latest 10 day(s).
| Time | Temp. | Humidity | Pressure | Rain* | Wind** | Luminosity | Snow |
|---|---|---|---|---|---|---|---|
| 1777537255 | 8.33° C | 56% | 1022.2 hPa | - | - | - | - |
| 1777536355 | 7.78° C | 56% | 1022.2 hPa | - | - | - | - |
| 1777535455 | 7.78° C | 58% | 1022.1 hPa | - | - | - | - |
| 1777534555 | 7.22° C | 59% | 1022 hPa | - | - | - | - |
| 1777533654 | 6.67° C | 60% | 1021.9 hPa | - | - | - | - |
| 1777532757 | 6.11° C | 60% | 1022 hPa | - | - | - | - |
| 1777531856 | 6.11° C | 61% | 1022 hPa | - | - | - | - |
| 1777530956 | 5.56° C | 63% | 1022 hPa | - | - | - | - |
| 1777530056 | 5.56° C | 63% | 1021.9 hPa | - | - | - | - |
| 1777529156 | 5.56° C | 64% | 1021.8 hPa | - | - | - | - |
| 1777528256 | 5° C | 65% | 1021.7 hPa | - | - | - | - |
| 1777527356 | 5° C | 66% | 1021.6 hPa | - | - | - | - |
| 1777526456 | 5° C | 66% | 1021.4 hPa | - | - | - | - |
| 1777525556 | 4.44° C | 66% | 1021.3 hPa | - | - | - | - |
| 1777524648 | 4.44° C | 64% | 1021.3 hPa | - | - | - | - |
| 1777523755 | 4.44° C | 63% | 1021.3 hPa | - | - | - | - |
| 1777522855 | 4.44° C | 63% | 1021.2 hPa | - | - | - | - |
| 1777521955 | 4.44° C | 67% | 1020.9 hPa | - | - | - | - |
| 1777521048 | 3.89° C | 69% | 1020.7 hPa | - | - | - | - |
| 1777520148 | 4.44° C | 69% | 1020.4 hPa | - | - | - | - |
| 1777518347 | 3.89° C | 69% | 1020.5 hPa | - | - | - | - |
| 1777517447 | 3.89° C | 70% | 1020.3 hPa | - | - | - | - |
| 1777516547 | 3.89° C | 70% | 1020.4 hPa | - | - | - | - |
| 1777515647 | 3.89° C | 71% | 1020.3 hPa | - | - | - | - |
| 1777514747 | 3.89° C | 70% | 1020.3 hPa | - | - | - | - |
* Rain since midnight (hover to see other rain measurements)
** Current wind speed in m/s (hover to see current wind gust speed)